Location: Unspecified
(33.6682°S, 0.0000°E)
Time: 11:56:13
(UTC+00:00)

Tiros 1 despin weight - Pass Details

Date: 24 June 2019
Orbit: 594 x 642 km, 48.2° (Epoch: 21 July)

Event Time Altitude Azimuth Distance (km) Brightness Sun altitude
Rises 15:49:15 0° 228° (SW) 2,971 ? 11.5°
Reaches altitude 10° 15:51:42 10° 221° (SW) 2,058 ? 11.1°
Maximum altitude 15:56:15 44° 148° (SSE) 897 ? 10.3°
Drops below altitude 10° 16:00:45 10° 75° (ENE) 2,035 ? 9.6°
Sets 16:03:09 0° 69° (ENE) 2,933 ? 9.2°
